Location: ??
(35.1715°N, 139.6450°E)
Time: 10:10:52
(UTC+00:00)

Cosmos 1238 Rocket - Pass Details

Date: 05 August 2024
Orbit: 364 x 855 km, 82.9° (Epoch: 18 September)

Event Time Altitude Azimuth Distance (km) Brightness Sun altitude
Rises 12:07:26 0° 347° (NNW) 3,143 7.6 -25.7°
Reaches altitude 10° 12:09:41 10° 343° (NNW) 2,286 6.8 -26.0°
Maximum altitude 12:14:46 55° 267° (W) 978 4.1 -26.7°
Enters shadow 12:16:08 43° 221° (SW) 1,141 4.2 -26.9°
